ECMWFFLT1_700_spd_000.txt.gz
Wind_Speed
32 31 30 30 31 30 25 21 21 22 20 18 17 16 14 11 9 9 12 15 19 23 26 30 33 33 32 30 29 28 26 24 23 22 21 21 21 21 21 21 22 22 22 23 23 24 24 23 22 21 21 20 21 21 21 22 23 23 22 22 23 24 24
33 33 31 31 31 30 27 23 23 23 21 19 18 17 15 12 10 11 14 16 19 23 26 30 34 34 32 30 29 27 25 24 23 21 20 21 21 22 22 22 23 23 23 23 24 24 23 22 21 21 21 20 20 21 21 21 22 23 23 22 22 23 24
34 35 34 33 31 31 28 25 24 23 21 20 18 18 16 13 11 13 16 17 19 22 25 30 34 35 33 31 29 27 25 23 22 20 20 20 21 21 22 22 23 24 24 24 24 23 22 21 20 19 20 20 20 21 21 21 22 22 22 22 22 22 23
34 34 35 34 31 31 29 27 25 23 22 20 19 19 17 15 14 15 16 18 19 22 25 29 34 35 34 32 30 28 25 23 21 20 19 20 20 21 22 22 23 23 24 24 23 22 21 20 19 18 18 19 19 20 21 21 22 22 21 21 21 21 22
35 33 35 35 32 31 30 28 26 23 22 21 20 20 20 17 16 16 17 18 19 21 24 29 33 35 34 32 30 28 26 23 21 20 19 20 20 21 22 23 23 23 23 23 22 22 21 19 17 17 18 19 18 19 21 21 22 22 21 20 20 20 21
35 33 32 34 33 31 29 29 28 25 23 23 22 21 21 20 18 18 19 19 20 21 24 29 32 34 35 33 31 28 26 23 21 20 20 21 21 22 23 22 22 22 22 22 22 21 19 17 17 18 19 19 18 19 20 20 21 22 20 20 20 20 22
30 32 29 30 31 31 30 30 29 27 26 26 24 23 23 22 20 20 20 20 20 21 24 28 31 34 34 33 31 28 26 24 22 21 21 21 22 22 22 21 21 21 21 20 20 19 18 17 18 18 19 19 18 19 20 18 19 21 19 18 19 19 21
22 27 27 27 28 30 31 31 31 29 29 28 26 26 25 24 22 22 22 21 21 22 25 28 31 33 34 33 31 29 26 24 23 22 21 21 21 22 21 21 21 21 20 19 19 18 17 17 18 18 19 19 18 20 21 18 18 19 19 19 19 20 20
17 21 23 24 26 29 31 31 32 31 30 30 28 27 27 25 24 24 23 21 22 23 25 28 31 33 35 33 31 28 26 24 22 21 21 21 21 21 22 23 23 22 21 19 19 18 17 18 18 18 19 19 19 20 21 19 17 17 19 20 21 22 22
17 19 23 24 25 28 30 32 33 32 31 31 30 29 28 26 26 25 23 22 22 23 25 27 29 33 34 33 31 28 25 23 22 21 21 21 21 22 23 24 25 24 23 21 19 18 18 19 19 19 19 20 21 20 20 19 18 16 18 20 22 23 23
16 18 23 26 26 26 28 30 31 30 31 32 32 30 29 28 26 25 24 22 22 24 26 27 29 32 34 32 30 27 24 22 22 22 22 22 23 23 24 24 24 24 24 22 21 20 20 20 20 20 21 22 22 21 19 19 18 18 18 20 23 24 25
17 18 20 24 26 27 27 28 29 29 32 34 33 31 30 28 27 26 24 22 23 24 26 27 29 32 33 31 28 25 22 22 22 22 23 23 24 24 24 23 23 24 24 24 23 22 22 21 20 20 21 23 24 23 21 19 19 19 20 22 24 26 28
20 21 21 23 26 28 29 29 29 30 33 34 33 31 29 27 27 26 24 23 23 24 25 27 30 32 31 29 26 23 21 21 22 22 23 24 24 24 23 21 21 22 23 24 25 24 23 22 21 20 20 22 24 25 23 20 20 21 22 23 25 27 30
21 24 25 26 27 29 29 29 29 32 34 34 32 31 28 27 27 25 24 23 24 24 25 27 30 31 29 26 24 22 20 20 22 23 24 25 24 22 21 19 20 21 22 24 25 24 23 23 23 21 19 20 23 26 25 22 21 22 23 25 26 29 31
23 25 27 28 28 28 29 30 31 33 34 33 31 30 28 27 26 25 24 24 24 24 25 28 30 29 27 24 22 21 19 20 22 24 25 24 22 21 20 18 19 21 23 25 25 23 22 22 23 22 19 18 21 26 26 24 23 23 24 26 28 30 31
24 26 28 29 29 29 29 30 31 31 32 31 30 28 27 26 25 24 23 23 23 23 25 28 28 27 26 23 21 20 19 19 22 24 24 22 21 20 19 18 20 22 24 24 24 23 23 22 22 22 19 18 21 25 27 25 24 24 24 26 29 31 31
26 26 27 29 31 30 29 30 30 30 30 29 28 27 26 25 24 23 22 21 22 23 26 27 27 26 25 22 21 20 19 19 22 24 23 22 21 20 18 18 21 23 24 24 23 23 23 22 22 20 19 18 21 25 26 25 24 24 25 27 29 30 30
26 26 26 28 30 31 30 29 29 28 28 27 26 25 24 24 22 20 19 21 22 24 25 25 25 25 24 21 20 20 20 22 24 25 24 23 23 20 18 19 21 23 24 24 22 22 22 22 21 19 19 19 20 23 24 25 25 25 25 27 29 30 30
24 24 24 25 28 30 30 29 28 26 25 24 23 23 23 22 19 17 19 21 22 23 24 23 24 25 23 21 20 20 22 24 24 25 25 24 22 21 20 19 20 22 23 24 23 21 21 21 20 19 19 19 19 20 22 24 25 25 25 26 28 29 29
23 23 24 25 25 27 29 29 27 24 22 21 21 22 22 19 17 17 19 21 21 22 22 23 25 24 22 21 21 21 23 24 24 25 25 23 22 22 21 20 21 22 23 23 22 22 21 20 19 19 19 19 20 19 20 22 23 23 23 25 27 28 27
22 23 24 24 24 26 29 29 25 22 21 21 22 23 20 17 17 19 20 20 21 21 22 23 24 23 22 21 21 22 24 24 25 25 24 22 22 22 22 22 22 23 23 22 22 22 21 20 19 19 18 18 20 19 19 20 21 22 23 24 26 27 26
20 22 23 24 25 27 28 26 23 20 20 22 23 22 17 17 19 19 19 20 20 21 22 23 23 21 20 20 21 23 24 25 26 26 24 23 24 23 23 23 24 25 24 23 23 22 22 21 21 20 19 17 18 18 18 19 20 20 21 23 25 27 26
15 18 20 23 23 22 21 21 20 20 21 23 22 18 17 19 19 17 18 21 22 21 22 22 21 19 19 20 21 23 25 26 27 27 26 26 26 25 25 25 25 25 25 25 24 22 22 21 21 22 22 20 18 17 17 17 19 19 20 22 24 25 25
11 12 16 21 21 19 19 19 20 21 23 22 19 17 19 20 18 17 20 22 22 21 21 20 20 19 20 22 22 23 26 28 28 28 28 28 28 27 27 27 25 25 25 25 23 21 22 22 20 20 20 20 20 19 18 18 17 18 20 22 23 23 23
8 9 12 16 17 17 17 18 21 22 21 19 17 19 20 19 18 21 23 22 21 21 21 20 19 20 23 24 23 25 27 28 28 28 29 29 29 29 29 28 26 26 26 26 25 23 24 24 23 22 21 19 18 18 18 18 17 17 20 22 23 23 22
8 8 9 12 14 14 15 17 19 18 17 17 19 20 20 20 22 24 24 22 21 21 22 21 21 23 26 26 25 27 28 29 29 29 29 30 29 29 30 30 29 28 28 28 27 27 27 27 27 26 24 22 19 17 17 17 18 19 20 22 23 22 21
8 6 7 10 11 12 13 14 14 14 16 18 19 19 21 22 24 24 22 21 22 23 23 23 25 27 29 28 28 29 29 30 30 29 29 31 30 29 30 31 31 30 31 31 30 29 29 29 28 27 25 24 22 19 17 16 17 18 19 21 22 21 20
8 7 8 9 9 9 10 11 13 15 17 18 18 20 22 23 22 21 20 22 24 25 26 27 29 32 33 31 31 30 29 29 29 28 29 31 31 30 31 31 30 29 31 32 31 29 28 28 27 26 24 23 22 21 20 18 16 15 17 20 21 20 19
9 9 9 8 8 9 10 12 14 16 17 17 19 21 22 21 21 21 23 24 25 26 29 30 32 35 36 34 33 32 30 29 28 27 28 30 30 30 31 31 29 29 30 30 30 29 27 26 27 25 24 23 22 22 22 19 15 15 18 20 20 20 19
11 10 9 9 10 11 12 14 15 16 17 19 22 22 21 22 23 24 26 26 24 26 31 33 35 37 37 35 34 33 32 32 30 28 28 29 30 31 32 32 30 30 30 30 30 28 26 26 25 24 22 21 21 22 22 20 16 16 17 18 19 19 18
11 10 10 11 12 13 14 15 15 17 19 21 23 23 23 25 25 26 27 28 27 29 32 34 36 37 36 34 33 33 33 33 31 29 28 29 31 32 33 33 33 32 31 31 30 28 26 25 24 22 20 19 20 21 21 20 18 16 16 17 18 19 18
10 10 11 12 12 13 15 16 16 18 20 22 24 24 25 27 27 28 29 30 31 32 33 35 37 36 34 33 33 34 34 33 31 31 30 31 32 34 35 35 34 34 33 31 29 27 25 24 22 20 19 19 20 20 18 18 18 17 16 17 18 19 19
11 12 12 13 13 14 15 16 17 19 22 24 26 27 28 30 30 30 31 32 33 33 34 35 34 33 33 33 34 36 36 33 32 32 32 33 34 35 36 36 35 33 31 30 28 26 23 22 21 20 20 20 19 18 16 17 18 17 17 17 18 19 19
12 12 12 13 13 14 15 16 18 20 23 26 28 28 30 31 32 33 32 32 32 34 34 33 32 32 34 35 35 36 34 33 33 33 34 34 35 34 35 36 35 34 32 29 26 24 21 20 21 20 20 20 19 17 16 17 17 17 17 17 17 18 17
12 12 13 13 14 15 16 17 19 21 24 26 29 30 32 33 33 33 31 30 31 33 33 32 32 34 35 35 35 34 32 32 33 34 34 35 36 35 35 34 34 35 34 30 25 22 20 19 20 19 19 19 18 17 16 17 17 17 17 17 16 16 15
12 13 15 15 16 16 17 19 21 23 25 27 29 31 33 33 32 31 30 29 29 31 31 32 32 33 34 35 34 33 33 34 35 35 34 35 36 35 34 32 32 32 31 26 21 19 18 18 18 18 17 17 17 17 17 17 17 16 16 16 16 16 15
15 16 17 17 17 18 19 21 23 25 26 28 29 30 31 31 31 30 29 28 28 29 31 32 32 32 34 35 34 33 34 34 35 36 36 35 33 32 31 30 29 26 22 19 17 17 17 17 17 16 16 16 17 17 17 17 17 17 16 16 15 15 15
16 17 18 19 20 21 23 24 26 27 27 28 28 28 28 28 27 27 27 27 28 30 31 31 32 33 34 35 35 35 34 33 34 35 35 33 30 29 28 28 25 20 15 14 14 14 15 15 16 16 15 15 16 16 17 17 17 16 15 14 14 14 14

ECMWFFLT1_700_spd_006.txt.gz
Wind_Speed
31 30 32 34 32 32 33 32 26 23 24 25 23 21 21 23 22 18 16 15 13 12 12 12 13 14 15 18 22 24 27 28 29 28 26 25 24 23 22 22 21 21 21 21 20 21 20 20 19 19 18 17 16 16 16 16 16 16 16 16 17 17 17
31 30 30 34 34 34 34 34 30 27 26 26 24 22 22 23 21 19 19 18 17 15 15 15 14 15 15 17 20 23 26 28 29 29 28 26 25 25 24 24 23 23 22 22 21 21 20 20 19 19 18 18 18 18 18 17 16 15 15 16 16 17 17
29 31 30 33 35 36 35 34 33 31 29 28 26 24 24 24 21 19 20 22 20 19 18 18 17 16 16 17 19 22 25 28 29 30 29 29 28 28 27 26 25 24 23 22 22 21 21 20 20 19 19 19 19 19 18 17 16 16 16 16 16 17 18
24 28 29 32 34 36 37 36 34 35 32 30 28 27 26 26 23 19 20 24 24 22 21 21 20 19 18 18 18 21 24 27 29 31 32 32 31 31 30 29 27 25 24 22 22 22 21 21 20 19 19 19 19 19 18 17 17 17 17 17 17 17 18
20 23 25 31 36 36 37 37 37 38 35 31 29 29 29 30 27 21 20 25 27 25 24 24 23 22 21 20 19 20 23 26 29 31 33 34 34 32 31 30 28 27 25 24 22 21 21 20 19 19 19 19 19 19 19 19 19 19 19 18 18 17 18
18 21 22 28 34 36 37 39 40 40 36 33 31 31 31 32 31 26 22 24 27 27 26 26 25 24 23 21 21 21 23 26 28 31 34 35 35 34 32 31 29 28 26 24 22 20 20 20 19 19 18 18 19 19 20 20 21 21 20 19 19 19 19
15 19 22 25 29 33 35 38 41 40 37 36 34 31 33 34 32 31 27 24 25 27 27 27 27 26 25 23 23 22 23 25 27 30 33 35 36 35 34 32 30 29 27 24 23 21 19 19 19 19 19 18 19 20 20 20 20 21 21 20 20 21 20
10 14 19 21 24 28 32 35 38 37 36 37 33 30 32 34 34 35 32 26 25 26 27 28 28 27 26 25 24 24 24 25 26 29 32 35 36 36 35 34 33 32 29 26 25 23 21 20 20 20 20 21 22 22 21 20 20 20 21 21 21 22 22
9 11 15 17 20 26 31 33 36 36 34 35 34 31 30 32 36 38 34 29 27 27 28 29 30 29 28 26 24 25 26 27 27 29 32 35 36 36 35 34 33 32 31 28 26 25 23 22 22 22 23 24 24 24 23 21 20 21 22 23 23 23 24
8 11 16 18 17 23 30 31 32 34 32 30 32 32 30 32 35 35 34 32 31 31 30 31 31 31 30 26 24 25 26 27 28 28 32 35 36 36 36 33 30 29 29 28 25 23 23 24 25 26 26 26 26 25 23 22 21 21 22 23 24 25 25
9 14 19 18 15 21 28 28 27 28 24 22 25 30 32 33 33 31 31 33 34 34 31 29 31 32 30 25 25 26 27 27 28 28 31 34 35 35 34 30 26 24 25 25 24 24 24 24 25 26 27 28 26 24 23 23 23 22 21 22 23 24 25
9 13 18 18 17 21 26 27 25 23 21 19 22 28 32 33 32 31 30 33 37 36 29 27 30 30 27 25 28 29 28 28 28 28 31 33 34 34 31 26 23 22 24 25 25 25 25 25 25 25 27 28 27 25 23 23 24 22 21 22 23 23 24
12 13 16 17 19 23 26 27 25 22 20 21 23 27 32 33 34 33 32 34 37 32 28 30 32 28 25 27 30 30 29 29 29 29 30 32 33 32 29 25 22 22 23 23 23 24 24 25 25 26 27 28 27 26 25 24 24 24 22 23 24 25 25
18 17 17 19 21 24 27 28 26 22 20 21 24 28 33 35 36 36 36 37 36 32 32 36 35 29 26 28 30 29 29 30 30 30 30 32 32 30 26 23 22 21 20 20 21 22 23 24 25 26 27 28 27 26 25 24 25 25 25 24 25 27 27
19 20 20 24 26 25 27 29 28 25 23 24 26 30 34 36 37 38 40 41 40 38 39 39 35 30 28 29 29 27 28 29 30 30 31 32 30 27 23 22 21 21 21 21 21 22 23 24 25 26 27 28 27 26 26 25 26 26 26 27 27 28 28
20 20 23 28 27 25 26 29 29 28 28 28 30 33 35 36 38 41 44 44 42 41 42 41 35 30 29 28 26 25 27 28 28 29 30 30 27 24 22 21 21 21 21 21 21 23 24 25 26 27 27 27 27 26 26 26 26 26 27 28 29 29 30
19 18 22 28 29 26 26 28 28 29 30 30 31 35 38 39 41 44 45 44 41 42 44 41 33 30 29 26 24 25 27 27 27 28 28 26 23 21 20 20 21 21 21 21 22 23 25 27 28 29 28 27 26 25 26 26 26 25 26 27 27 29 31
18 17 19 23 26 27 27 27 28 30 30 29 30 35 40 42 44 45 44 42 42 45 45 37 31 31 27 23 23 25 26 26 27 27 26 24 21 19 19 20 21 21 21 22 23 24 26 29 31 31 30 27 25 25 27 28 27 27 27 28 28 29 29
25 22 23 24 25 25 27 27 27 28 28 29 33 39 44 44 44 43 42 42 45 47 39 29 29 29 24 22 23 23 23 24 25 25 24 22 19 18 19 20 21 21 22 23 24 26 28 30 32 32 31 28 27 27 28 30 30 29 29 30 31 29 29
26 24 23 25 26 25 25 28 28 27 27 28 30 37 44 44 43 42 43 45 48 42 29 23 25 23 20 20 20 21 22 23 24 24 22 19 18 18 20 21 22 22 23 24 25 26 29 31 32 33 32 30 29 28 28 30 30 31 31 32 31 30 29
23 22 21 21 22 21 23 28 29 28 28 27 26 28 32 33 36 41 47 50 46 32 21 21 22 19 17 17 17 18 20 22 23 22 18 16 17 19 21 23 24 24 25 26 26 26 29 31 33 33 33 32 32 29 28 29 30 32 33 33 32 31 30
17 17 18 19 18 17 19 24 27 27 27 25 24 25 26 25 31 42 49 48 36 23 19 20 18 15 14 14 15 18 21 23 23 20 16 16 19 21 23 25 26 27 29 31 30 28 29 32 33 33 33 32 32 31 29 29 30 32 33 33 32 32 31
13 13 17 19 18 16 17 20 23 25 24 22 23 25 26 27 33 38 40 35 26 19 17 16 13 13 14 14 16 20 23 23 22 20 19 21 23 23 24 27 29 31 33 34 32 30 32 34 34 34 33 32 32 32 31 30 31 33 34 33 31 31 30
13 12 16 18 18 18 19 20 22 24 23 20 22 26 29 31 32 30 27 25 20 17 15 14 13 13 15 17 18 21 23 23 22 23 25 26 26 25 27 29 31 33 34 33 30 30 33 34 34 35 35 33 32 32 32 31 32 34 35 33 31 31 30
12 11 15 18 17 18 20 21 22 24 23 21 22 28 33 33 28 23 21 20 17 16 17 18 18 18 20 21 20 20 21 22 24 27 28 29 29 28 30 32 34 36 36 33 30 31 33 34 35 36 36 35 34 33 32 31 32 33 34 32 30 30 30
16 17 20 20 16 17 20 21 23 25 23 19 21 28 30 27 23 19 16 15 15 15 18 19 20 23 24 24 23 23 23 23 26 29 30 30 31 31 33 35 36 37 37 35 32 32 34 35 35 36 36 34 35 34 31 29 30 31 32 31 30 29 29
24 25 26 22 17 16 18 21 24 24 19 16 21 26 24 20 19 15 11 12 13 14 16 19 20 22 24 24 25 26 26 27 29 31 32 33 33 35 37 38 37 38 38 36 33 32 34 36 36 37 36 33 32 32 30 28 28 28 28 28 28 27 26
23 25 24 21 18 16 16 20 22 19 16 18 21 23 20 16 13 11 10 11 14 14 15 18 19 20 22 24 26 27 28 30 32 33 34 35 36 37 38 39 40 41 36 31 30 33 35 36 36 37 37 33 30 30 30 28 27 25 24 24 24 24 25
23 25 22 18 18 19 19 21 18 14 14 18 19 19 17 13 11 13 14 14 14 13 14 17 18 19 21 23 26 29 29 31 33 35 36 37 38 38 38 39 43 43 33 26 29 34 35 33 33 34 35 33 32 32 32 30 27 26 25 24 21 22 24
27 27 24 22 22 22 21 22 19 14 14 16 17 16 14 12 14 18 20 19 17 16 18 20 22 23 24 24 26 29 31 33 36 37 37 37 37 38 39 40 42 40 33 29 33 36 33 31 31 32 33 33 33 35 35 33 29 26 25 22 20 20 21
27 27 27 26 24 23 22 21 18 15 14 13 14 15 15 17 20 21 21 21 21 21 22 25 27 29 29 29 29 31 33 34 36 37 35 35 36 38 39 39 38 36 33 34 35 33 31 30 32 33 33 32 33 36 37 33 26 21 18 16 17 18 18
30 31 33 31 26 23 24 23 19 18 18 17 17 17 18 21 23 23 23 23 23 24 26 28 30 32 33 34 34 34 32 32 34 35 35 36 37 37 37 37 36 35 34 34 34 32 31 31 32 32 32 31 33 36 35 28 21 15 13 13 14 16 17
29 30 31 29 25 24 25 25 24 24 23 22 21 22 24 25 24 23 23 24 25 27 28 29 30 32 33 31 30 29 29 32 36 36 34 34 35 35 35 35 35 34 33 33 33 32 32 31 32 33 32 32 33 33 30 23 17 14 13 13 14 15 16
33 31 28 25 26 27 28 27 24 24 23 23 23 24 24 24 21 20 21 24 27 29 30 30 31 33 34 32 30 31 34 36 36 34 31 31 31 32 33 33 31 31 33 33 33 32 31 31 33 34 34 33 31 28 23 19 16 14 13 14 14 15 16
35 31 25 23 24 24 24 23 22 22 21 20 19 18 17 17 19 21 23 26 28 30 32 34 35 36 37 36 33 33 33 32 30 30 29 28 29 30 31 31 31 32 33 32 31 31 31 32 33 34 33 31 28 23 19 17 16 15 14 15 15 15 16
30 23 19 20 23 22 22 22 21 20 18 17 16 16 17 19 21 22 24 27 28 30 33 36 37 37 37 34 32 30 30 28 28 29 29 28 30 31 31 31 32 32 31 30 30 31 32 32 32 32 31 29 25 21 19 18 17 16 16 16 16 16 15
27 25 24 25 26 25 24 24 21 19 18 18 17 18 21 23 23 24 25 27 28 30 32 34 35 36 35 33 31 31 30 29 30 31 30 29 30 32 32 32 31 30 30 30 30 31 32 32 30 29 27 26 23 21 19 18 17 16 16 16 16 16 16
26 29 31 31 30 28 26 25 25 24 23 22 21 21 22 24 25 25 27 29 30 32 33 32 32 32 33 33 34 34 33 32 31 30 29 29 30 30 30 30 30 30 29 29 30 31 32 30 28 27 25 23 21 19 18 17 16 15 15 16 16 16 16

ECMWFFLT1_700_spd_009.txt.gz
Wind_Speed
32 31 30 30 32 31 30 28 27 27 25 24 23 21 21 23 23 21 20 19 17 15 14 13 11 10 10 9 9 10 12 16 19 21 23 25 26 27 27 28 28 28 27 26 25 23 22 20 19 18 17 17 16 16 16 16 16 15 15 15 14 15 15
31 31 30 31 33 33 31 30 29 29 27 26 25 23 22 22 23 23 22 22 21 19 18 17 15 14 14 13 12 12 13 15 17 20 22 24 26 27 29 30 30 30 29 28 27 24 22 20 19 18 18 17 16 16 16 16 16 15 15 16 15 15 15
23 28 31 31 33 34 32 31 30 30 29 27 25 25 24 23 22 22 22 23 23 23 22 21 19 18 17 17 16 16 15 16 17 19 21 23 25 27 28 30 31 32 32 30 27 24 21 19 18 18 17 16 16 16 16 16 16 16 17 17 17 17 17
15 24 31 31 32 32 31 31 31 31 31 29 27 27 26 24 22 22 23 23 23 25 25 24 22 21 20 20 20 20 19 19 19 19 20 22 24 26 28 30 32 33 33 31 28 23 20 18 17 17 16 16 16 16 16 17 17 17 17 18 18 18 18
11 19 28 31 31 31 32 32 32 32 33 32 31 30 29 28 26 25 25 25 24 25 27 27 26 23 23 23 24 23 22 21 21 21 21 22 24 27 29 31 32 34 34 31 27 22 18 15 14 14 15 15 15 16 17 18 19 19 18 18 17 17 17
11 15 20 24 27 29 30 30 31 33 33 34 33 31 31 32 31 29 27 27 26 26 28 29 27 24 24 26 27 27 26 24 23 22 23 24 25 27 29 31 32 34 33 30 25 20 17 15 13 13 14 15 15 17 18 19 20 20 19 18 18 17 18
13 14 13 17 20 23 26 26 27 29 31 33 35 35 35 34 34 33 30 29 29 29 29 28 26 24 25 27 29 29 29 28 26 23 24 25 26 27 29 31 33 33 33 29 24 19 16 15 15 14 15 15 16 18 19 20 20 20 19 19 18 18 19
11 10 10 14 16 18 22 22 23 26 28 31 34 34 34 33 33 34 33 32 31 31 31 30 26 25 25 26 28 29 31 31 29 25 25 27 27 27 29 31 33 34 35 31 25 19 16 14 15 15 16 17 18 19 20 21 21 21 20 19 18 18 19
10 9 10 12 14 15 18 20 22 24 26 29 30 29 30 32 33 33 32 33 33 32 33 32 30 27 25 26 27 29 31 32 31 27 27 28 26 27 29 31 33 36 37 33 27 21 18 17 16 17 17 18 19 20 21 21 21 21 20 20 19 19 19
11 11 10 11 12 13 15 18 21 23 26 27 26 25 27 30 32 33 32 32 33 33 33 33 33 32 28 27 28 29 31 32 31 28 28 27 25 26 29 31 34 37 37 32 27 23 22 21 20 20 20 21 22 22 22 23 22 22 21 20 21 21 21
11 11 10 10 10 12 14 18 20 22 25 24 22 22 25 28 30 31 31 31 32 33 32 31 33 34 32 30 30 31 32 33 31 28 28 27 25 26 29 31 34 35 33 28 25 23 21 20 20 21 22 23 24 24 25 25 24 23 22 21 21 22 22
9 10 11 10 10 12 14 18 21 23 25 24 23 23 25 27 29 29 30 32 33 33 32 31 32 34 34 34 33 32 31 30 28 27 28 26 25 27 29 31 32 31 27 23 21 20 18 18 19 20 21 22 24 25 26 26 25 23 21 20 21 21 21
9 10 12 13 14 15 16 18 21 24 26 26 26 25 26 29 30 30 31 33 34 34 34 33 32 33 35 36 37 34 29 25 24 26 28 25 24 27 28 29 28 25 22 19 18 17 17 17 18 19 20 22 25 26 26 25 24 22 21 21 22 22 22
9 12 14 16 18 20 22 22 22 23 26 28 28 27 29 31 31 32 32 34 36 36 36 36 35 35 35 36 36 34 29 25 25 27 26 23 24 27 27 26 25 22 19 18 17 17 17 18 18 19 21 23 25 26 25 25 23 22 22 22 23 23 23
9 13 15 17 20 23 26 27 25 23 23 25 27 29 31 32 32 33 33 36 38 37 38 39 38 37 37 36 35 33 30 28 27 27 24 22 24 26 26 25 24 20 17 16 16 16 16 18 19 20 22 23 24 24 25 24 24 24 25 25 25 25 25
12 14 16 19 22 24 26 28 29 27 24 24 27 29 32 33 33 33 33 36 38 38 40 41 39 39 40 38 36 34 31 29 30 27 22 21 24 25 25 25 23 18 16 15 15 16 17 19 21 22 23 23 24 24 25 24 24 24 25 25 26 27 27
20 20 20 22 24 26 27 27 28 27 26 25 26 28 32 33 33 34 35 37 38 40 42 41 40 41 42 41 38 33 29 29 29 24 20 21 23 24 24 23 20 17 15 15 15 17 19 21 23 24 25 25 25 25 25 24 23 24 24 25 26 27 28
25 23 24 25 25 26 27 27 27 27 26 26 26 27 29 30 32 36 39 39 39 41 42 41 43 43 44 45 38 28 25 27 23 19 19 21 22 23 23 20 17 16 16 16 17 19 22 24 26 26 26 26 26 25 26 25 24 24 24 25 27 28 28
20 22 25 27 27 28 29 28 27 26 26 26 25 25 26 28 31 35 38 39 39 39 40 43 46 47 47 45 33 23 24 23 17 15 18 20 21 22 19 15 14 15 16 17 19 21 24 27 27 26 26 27 27 26 26 26 25 24 25 26 27 28 30
20 24 26 26 27 28 28 28 29 30 29 28 26 25 26 28 30 32 34 35 37 39 41 44 48 50 49 41 27 21 20 16 13 16 17 18 19 17 15 14 15 16 17 19 20 22 25 27 27 26 27 28 28 27 26 27 26 25 26 27 28 30 31
22 23 22 21 21 20 19 22 25 27 29 29 29 28 27 28 29 30 32 34 37 41 43 45 51 52 43 30 20 16 14 12 14 17 16 16 16 14 13 16 17 17 19 21 22 24 25 27 27 27 28 29 30 29 28 28 29 29 29 30 31 31 30
18 18 16 15 16 17 18 19 20 21 24 27 29 29 28 29 30 31 34 36 39 43 43 42 46 44 31 19 15 12 10 11 14 15 14 13 13 13 15 17 17 18 20 22 24 25 26 28 28 28 29 30 31 31 31 31 32 33 34 34 34 33 30
14 15 15 16 19 20 20 21 21 22 22 25 26 27 29 31 31 32 33 34 35 39 37 33 32 28 19 14 12 9 8 11 12 12 12 13 14 16 17 17 18 20 22 24 26 27 28 30 31 30 29 30 32 33 33 32 31 31 32 33 34 34 32
13 17 19 21 22 21 21 23 25 25 22 23 25 28 33 35 32 28 30 32 31 28 24 20 17 16 14 12 8 7 7 10 11 12 14 16 18 20 20 20 20 23 25 27 28 29 31 32 32 30 29 31 33 33 33 32 30 29 29 30 30 31 31
15 19 22 23 22 24 27 29 31 28 25 27 29 29 30 31 28 26 28 30 26 17 12 11 13 16 13 8 6 7 8 11 13 15 17 20 23 25 26 25 25 27 29 30 30 31 32 32 32 30 30 32 34 32 32 31 31 30 29 30 30 30 31
13 17 20 22 23 27 31 32 32 29 28 30 32 32 25 18 17 19 19 18 14 8 6 10 14 13 10 7 7 8 11 14 16 18 21 24 26 28 29 29 29 30 31 32 33 33 32 31 31 30 32 34 34 31 30 31 31 31 31 31 31 32 33
12 14 19 23 27 30 32 31 30 29 28 28 28 28 21 11 8 12 11 8 7 5 8 11 11 10 9 7 8 12 15 17 19 21 24 26 27 29 31 33 33 31 32 34 34 34 33 31 30 31 33 34 33 31 30 31 31 32 32 32 33 33 33
12 14 20 26 31 33 33 31 31 32 31 29 25 22 17 9 5 5 6 7 8 8 9 9 10 9 7 6 10 15 17 19 21 23 25 27 28 31 32 34 35 33 33 35 36 36 35 32 30 32 33 32 32 32 32 32 32 31 31 32 33 32 30
18 21 25 28 30 32 32 31 31 32 32 30 25 19 13 9 8 7 7 9 10 9 7 6 6 6 7 9 14 17 19 21 23 25 28 29 31 33 35 36 36 35 36 38 39 36 32 30 30 32 33 33 32 32 32 32 31 31 31 30 29 27 27
23 27 29 29 28 30 30 29 28 29 30 30 26 17 10 10 12 13 12 12 11 8 5 6 8 9 11 14 17 19 21 24 26 28 30 31 33 36 37 38 39 39 39 40 38 33 30 30 31 32 33 33 32 31 31 31 30 30 30 27 25 23 22
25 27 28 28 29 30 30 30 30 30 30 30 26 19 13 14 16 15 14 14 12 9 7 9 11 13 15 17 19 22 25 27 28 30 31 33 36 38 39 40 41 41 40 39 35 31 30 31 32 33 33 32 31 31 31 30 29 28 26 24 21 20 18
28 28 27 27 29 31 32 33 33 32 32 31 26 20 17 17 17 17 17 16 14 11 11 13 14 15 19 20 21 23 25 25 27 29 31 34 36 37 38 38 38 36 35 33 31 30 31 32 32 32 32 30 30 31 31 29 27 25 23 21 19 17 17
31 29 27 27 29 31 33 34 33 32 30 26 20 17 18 19 20 20 21 20 17 16 17 17 16 17 21 22 23 24 25 26 28 31 32 33 33 33 34 34 33 32 30 29 29 30 30 30 30 31 31 30 30 29 29 28 25 22 20 18 17 17 16
28 27 26 27 29 30 32 32 33 33 31 25 19 17 18 20 22 23 23 21 20 20 19 18 17 19 22 24 25 27 29 31 32 32 32 31 29 29 30 30 30 30 29 28 28 28 28 28 28 28 30 30 29 28 27 25 22 20 18 17 16 17 17
24 24 24 26 28 28 29 30 30 30 29 26 23 21 20 21 22 23 21 20 19 17 17 18 19 21 23 25 28 30 32 33 33 32 31 29 27 27 28 28 28 28 27 27 27 26 26 26 26 27 28 28 27 26 26 24 21 19 17 17 17 18 18
24 23 23 24 25 27 29 30 29 27 26 25 25 25 26 26 26 25 20 17 15 15 17 19 21 23 25 27 29 31 32 32 32 32 31 29 27 26 26 26 27 27 26 27 27 26 25 25 25 26 26 26 26 26 25 23 21 19 18 17 17 18 18
26 24 22 21 22 24 26 26 26 25 25 25 26 28 29 31 31 25 17 13 14 16 18 20 21 24 26 28 30 31 30 30 30 30 29 28 27 26 25 25 25 26 26 27 27 26 25 25 25 24 24 25 26 25 24 23 21 19 18 18 17 18 17
26 24 21 20 20 21 22 23 24 25 26 27 29 29 30 33 29 18 10 11 14 16 18 20 22 24 26 27 28 28 29 29 30 30 29 27 27 27 28 27 26 26 26 27 26 25 25 25 25 24 23 25 26 25 23 21 20 19 19 18 17 17 16

ECMWFFLT1_700_spd_015.txt.gz
Wind_Speed
17 19 20 21 21 23 23 23 23 23 23 24 22 22 21 20 19 19 19 19 19 19 19 19 19 20 19 17 15 13 12 10 8 7 6 7 8 10 12 13 15 17 19 22 24 26 27 28 27 25 22 18 14 12 11 11 10 10 11 11 12 12 13
19 18 19 19 19 20 21 21 23 23 23 23 22 21 21 20 19 19 19 19 19 19 20 21 21 22 21 19 18 17 15 13 12 11 10 10 11 13 14 15 16 17 19 21 24 25 26 27 27 25 22 17 14 12 11 11 10 10 11 11 12 12 13
22 19 19 18 17 17 18 20 20 20 21 21 21 20 19 18 17 17 18 18 19 20 21 22 22 23 23 22 21 20 18 17 16 14 14 14 15 16 17 18 18 19 20 21 23 25 26 27 27 25 22 17 13 12 11 11 10 10 11 12 12 13 13
24 22 20 17 15 15 16 19 18 17 17 17 16 16 16 16 16 16 17 17 18 20 20 20 21 23 24 24 24 24 22 21 19 19 19 19 19 20 21 22 21 21 21 22 23 24 25 26 26 25 22 17 13 11 10 10 10 10 11 12 13 13 13
26 24 22 18 16 14 15 17 16 16 16 15 16 16 16 18 19 20 19 19 19 19 19 21 22 24 25 26 26 27 26 24 23 23 23 23 23 23 24 24 23 22 23 22 22 23 24 25 25 24 20 15 12 11 10 10 10 10 11 12 12 12 13
27 25 23 20 17 14 14 15 15 15 14 14 14 14 15 18 20 20 21 22 22 21 21 23 25 26 27 27 29 30 29 28 27 26 26 26 26 26 26 26 25 24 24 23 22 22 23 23 24 22 18 13 11 11 11 11 11 12 13 13 14 13 13
27 25 23 21 16 13 13 14 16 16 15 15 14 13 16 19 21 21 22 24 24 24 24 25 26 27 27 29 31 33 33 30 29 30 29 28 28 27 27 26 25 25 24 23 22 22 22 22 22 20 15 12 10 11 11 12 12 14 15 16 16 16 15
25 24 22 20 16 13 12 13 15 15 16 17 17 17 19 20 22 23 23 24 25 26 27 27 27 28 29 31 33 36 36 31 29 30 31 30 29 28 28 27 26 25 24 23 22 21 21 21 21 19 14 11 10 11 12 13 13 15 16 17 17 17 17
23 23 20 17 15 13 12 13 13 14 16 18 17 18 18 19 20 22 22 23 25 26 27 27 29 30 31 33 35 38 40 35 30 30 32 31 30 29 28 27 26 23 22 22 21 21 21 21 20 17 12 10 10 11 11 12 14 16 17 17 17 17 18
22 20 17 15 15 13 12 13 13 14 15 15 15 16 16 17 18 20 21 23 24 24 25 27 30 32 34 36 36 39 44 41 33 30 32 32 30 29 28 26 24 22 20 20 20 20 20 20 18 15 11 10 10 10 12 13 15 16 17 18 18 18 18
20 19 18 18 17 15 14 13 12 12 11 10 10 11 11 12 14 15 17 19 21 21 21 25 29 32 35 37 39 43 48 45 36 30 32 32 30 30 28 26 24 22 20 20 21 20 19 19 17 14 12 11 11 12 13 14 15 16 17 18 19 19 19
19 20 23 23 20 17 15 13 11 10 9 8 9 9 9 10 11 12 13 15 16 17 20 24 27 30 34 36 42 50 51 45 38 32 29 31 33 32 29 28 26 22 21 22 21 18 18 18 16 15 13 12 12 13 15 15 15 16 16 17 19 20 20
18 18 21 22 21 18 16 13 10 8 8 7 8 9 9 10 10 12 13 13 13 14 17 22 26 30 36 39 46 53 51 43 39 35 29 28 32 31 29 30 27 24 22 20 17 16 17 17 16 15 13 13 14 15 16 17 17 17 17 17 19 20 21
18 17 18 20 21 20 18 15 9 7 7 7 8 10 11 11 12 13 14 14 14 15 16 20 27 33 39 43 47 52 50 44 42 41 33 28 31 30 29 31 30 28 25 17 13 16 17 17 16 15 13 14 15 16 18 18 19 18 18 19 20 21 21
20 19 19 19 19 19 19 17 11 7 8 9 10 11 12 14 15 16 16 16 16 17 17 22 29 32 35 41 44 47 50 49 46 42 36 32 31 31 32 33 29 25 21 14 12 15 17 17 17 15 14 15 17 18 19 19 19 20 20 20 21 21 22
22 20 19 18 16 17 19 18 13 11 12 12 13 13 14 17 18 19 19 19 19 19 21 26 30 31 33 37 39 42 49 53 48 40 36 34 31 30 36 35 25 19 17 14 14 15 17 19 17 14 15 16 18 19 20 20 20 20 21 21 22 23 24
20 18 17 17 15 16 18 17 15 15 15 14 15 16 17 19 20 21 23 23 23 24 26 30 32 32 34 38 39 43 50 53 46 37 33 33 30 30 34 28 17 15 16 15 16 18 19 19 17 15 16 17 19 20 20 20 21 21 21 21 22 25 26
18 16 16 16 16 18 19 16 15 14 15 16 18 20 22 23 24 25 25 26 27 28 31 33 33 34 37 39 41 46 49 46 38 29 27 29 28 27 28 21 15 16 17 16 18 21 20 19 17 16 17 18 19 19 19 20 21 21 21 21 23 26 27
16 17 16 16 18 19 17 15 15 15 17 20 22 24 25 26 27 28 28 28 29 30 32 33 34 36 38 40 42 44 43 37 32 28 26 26 25 23 22 21 19 19 19 18 19 19 18 18 17 16 17 18 18 17 18 19 19 20 22 23 25 27 28
18 19 19 19 19 18 17 18 18 18 19 19 20 21 21 20 21 22 24 25 27 29 31 31 33 35 38 41 44 43 37 32 31 30 28 27 25 21 21 23 21 19 20 20 19 17 17 17 17 17 18 17 17 17 17 18 19 21 22 24 25 27 28
23 23 22 21 19 19 19 19 18 18 17 15 15 15 14 14 15 16 17 19 20 23 25 27 29 32 35 40 43 41 35 31 29 28 28 29 27 23 22 23 22 21 21 20 17 16 17 18 18 19 19 19 19 18 18 19 21 23 24 24 26 27 28
25 23 21 20 19 19 18 18 18 16 14 13 13 13 13 13 15 17 18 18 18 20 21 23 24 27 30 32 32 31 29 28 29 29 29 28 26 23 21 20 21 21 20 18 16 16 17 19 19 20 21 21 21 21 21 21 23 26 26 25 26 27 29
24 21 20 19 18 18 18 19 18 16 14 14 14 13 13 15 17 20 20 21 21 21 22 22 21 23 26 25 22 21 21 22 26 29 26 24 22 19 17 18 20 20 18 16 16 17 18 19 20 22 24 25 24 23 23 23 26 28 28 26 27 28 29
22 19 17 17 17 18 19 18 16 15 14 14 14 15 17 18 20 21 21 21 21 20 20 20 19 20 23 21 16 14 15 18 23 27 22 19 19 17 15 16 18 17 16 16 16 17 18 20 22 25 27 27 27 26 24 25 29 30 28 27 28 29 30
19 17 15 15 16 18 19 17 16 15 14 14 16 18 20 22 23 24 23 21 20 19 19 18 18 18 19 17 12 13 16 19 23 25 19 15 17 15 13 15 16 15 16 17 17 18 20 23 26 29 31 31 29 26 25 27 30 30 28 27 28 29 30
17 17 17 18 18 18 18 17 16 15 15 17 20 22 24 26 27 27 25 22 21 19 17 17 17 17 17 15 15 18 21 22 22 20 15 14 15 14 15 16 17 18 18 17 17 19 22 24 28 32 35 35 31 26 26 29 30 29 28 27 29 30 31
14 15 17 18 18 18 17 16 16 17 18 21 23 25 27 28 29 28 27 25 21 17 14 15 16 17 18 18 19 22 23 22 19 16 15 16 16 17 18 19 20 20 19 18 19 23 24 25 28 32 37 39 34 27 27 30 30 28 28 28 29 31 32
15 15 16 16 17 17 17 17 18 19 21 24 26 27 28 29 29 29 28 25 20 14 13 14 16 17 18 19 21 22 23 22 19 16 18 20 18 17 19 20 20 21 21 21 23 28 30 31 34 36 39 41 37 29 27 30 30 29 29 29 30 31 33
16 15 14 15 15 17 19 19 19 21 23 25 26 27 28 29 29 29 27 25 21 17 15 15 16 17 18 20 22 22 22 24 22 21 21 20 17 18 18 18 18 19 22 24 27 30 34 36 38 40 40 37 33 28 27 29 29 29 29 29 30 32 33
13 12 13 14 16 18 20 21 23 24 25 26 26 27 29 29 28 28 27 25 22 19 16 16 17 17 17 19 22 23 24 25 24 23 22 20 20 21 19 16 16 17 20 24 27 29 32 33 35 39 38 32 27 28 29 30 29 28 29 29 31 32 32
13 16 18 21 22 23 25 26 26 26 26 27 28 28 29 29 28 27 26 24 22 18 16 16 17 17 18 20 23 25 26 25 24 25 24 22 21 20 16 15 18 19 21 24 25 27 30 30 32 36 33 27 27 30 31 30 29 28 29 30 31 31 31
22 22 23 25 27 28 28 28 28 28 28 28 28 28 28 27 27 26 24 22 19 17 16 17 18 18 20 23 26 28 28 27 27 24 19 14 13 15 16 17 20 21 22 22 23 25 28 29 30 30 27 25 29 32 31 29 29 28 29 30 30 30 29
24 24 26 28 29 29 29 29 29 29 28 28 28 28 28 26 25 23 21 18 16 16 17 17 18 20 22 25 28 29 28 27 25 18 12 10 12 15 17 19 20 20 21 21 22 23 25 26 25 25 25 28 31 31 30 29 28 28 29 29 29 29 28
24 26 27 28 28 29 29 29 29 29 30 30 30 29 27 25 22 20 18 16 16 17 17 17 20 23 24 27 29 30 28 26 22 17 13 12 13 14 16 18 18 19 19 20 21 22 22 22 24 25 27 29 30 30 30 29 28 28 28 28 28 28 26
26 27 26 26 26 27 28 29 31 31 32 32 30 27 24 20 17 17 16 16 18 19 19 20 23 26 29 30 32 29 22 19 18 16 13 11 11 12 14 15 17 18 19 20 20 20 19 21 24 27 29 30 30 30 29 28 27 27 27 27 27 27 26
29 30 30 30 29 28 29 30 31 31 30 29 26 21 17 15 15 15 14 14 17 19 20 22 25 29 32 30 27 21 15 14 13 12 10 9 9 11 12 14 16 18 18 19 19 19 20 23 26 27 29 29 30 29 29 28 27 26 26 27 26 26 26
30 31 31 31 30 30 29 29 28 26 25 22 19 16 14 13 13 13 12 13 15 16 16 17 19 21 22 20 18 16 14 13 12 9 8 8 9 10 11 13 15 16 17 17 18 19 21 24 26 27 28 28 28 28 28 27 26 26 26 26 26 26 26
29 30 31 31 31 30 28 26 23 21 19 17 16 15 14 13 13 12 12 13 14 14 11 9 10 11 12 14 15 15 13 12 10 9 8 8 9 11 13 14 15 15 16 17 18 20 22 24 26 27 27 27 27 27 26 25 25 25 25 25 26 27 25

ECMWFFLT1_700_spd_021.txt.gz
Wind_Speed
21 23 21 21 21 22 22 22 22 23 23 24 23 22 21 21 20 20 19 18 17 18 19 19 19 19 18 17 17 16 16 16 16 16 14 12 12 12 11 10 10 10 10 10 11 12 12 13 14 15 15 16 17 16 15 13 11 10 9 8 8 8 8
21 21 22 21 20 22 23 22 23 24 24 24 23 22 22 21 20 19 18 17 17 17 18 18 18 18 18 18 18 17 17 18 18 18 17 16 16 16 15 14 13 13 13 13 14 14 14 14 14 15 15 15 16 16 15 13 11 10 9 9 9 9 9
21 20 20 20 19 20 23 24 24 24 25 24 24 23 21 19 18 18 18 17 17 17 18 17 17 17 18 19 19 18 19 20 21 21 20 20 20 19 18 18 17 17 16 16 17 17 16 15 15 15 15 15 15 16 14 13 11 10 9 9 9 9 9
23 21 19 18 18 19 23 25 25 25 25 24 23 23 21 19 17 17 18 19 19 18 18 17 16 17 18 19 19 20 21 23 23 23 24 24 24 23 22 21 21 21 20 20 21 20 19 18 17 16 15 15 15 15 14 13 11 11 10 10 9 9 10
25 23 22 21 20 21 25 27 26 26 26 24 22 22 21 20 19 18 18 18 19 19 18 17 17 17 17 18 20 21 23 25 25 26 27 27 27 27 26 25 24 24 23 23 23 23 21 20 18 17 16 15 14 14 14 13 12 11 11 10 10 10 10
25 24 24 25 24 24 26 27 26 26 25 23 21 20 20 21 20 19 18 19 19 19 19 19 18 18 18 19 20 23 25 26 26 28 29 30 30 30 29 28 27 27 27 26 26 24 23 21 18 17 16 15 14 14 13 13 12 12 12 11 10 10 11
22 24 26 27 26 26 27 27 25 24 23 21 19 19 21 21 20 19 19 20 19 19 20 20 18 18 18 20 22 24 25 26 27 29 31 32 32 32 32 31 31 30 30 30 30 28 26 24 22 18 17 16 15 13 13 13 13 13 13 12 12 11 11
17 21 24 25 26 27 28 27 25 23 23 22 21 22 23 23 22 21 21 20 19 20 21 20 19 19 19 21 23 24 25 26 28 30 33 34 35 34 35 34 34 33 33 34 33 31 31 32 31 26 22 19 17 14 12 13 14 15 14 13 13 13 12
14 16 19 21 25 27 26 25 24 23 22 22 22 22 23 24 24 24 22 20 20 21 19 18 19 19 20 22 24 25 26 28 30 32 34 36 37 36 37 37 37 36 36 36 36 35 34 33 33 33 27 22 20 18 15 15 14 16 16 15 14 13 13
14 13 15 20 25 27 24 23 24 23 23 23 22 22 23 24 24 24 23 22 22 20 18 18 19 20 22 23 24 25 27 28 31 34 36 38 39 38 38 40 41 40 40 40 39 40 41 37 34 34 32 28 25 22 21 19 15 17 18 16 15 14 13
14 15 17 21 26 27 23 22 23 22 22 23 22 22 22 22 22 22 22 22 21 19 19 20 21 21 23 24 25 26 27 28 30 33 36 40 42 41 40 42 43 44 44 45 44 43 46 46 40 34 32 34 32 27 25 22 17 18 20 17 15 14 14
17 18 20 22 26 25 21 21 21 20 21 23 23 23 23 23 23 22 21 21 21 20 20 21 22 23 24 25 26 27 27 29 30 32 34 38 42 44 44 45 46 48 48 48 47 46 48 50 46 39 34 35 35 31 28 24 19 19 20 18 15 15 15
20 20 21 22 25 24 21 21 20 19 20 22 24 24 23 24 23 23 22 21 20 21 22 23 23 25 26 26 27 27 26 27 28 29 31 36 42 46 48 48 49 51 51 50 50 50 49 50 47 44 39 35 33 31 29 26 22 20 20 18 16 17 17
21 21 22 23 24 22 20 20 20 20 20 22 23 23 22 22 22 21 20 19 20 22 23 24 25 26 26 26 26 26 24 23 25 27 30 36 41 45 48 51 52 54 55 53 53 52 52 52 51 47 42 36 31 28 29 29 25 21 20 18 18 18 18
22 22 23 24 23 21 20 20 20 21 21 22 23 22 22 21 21 21 20 19 21 22 23 23 24 24 24 25 24 23 23 23 25 28 32 37 41 43 47 50 51 55 58 56 54 51 49 51 52 50 44 36 28 26 29 29 25 21 20 19 19 19 18
22 22 23 25 24 23 22 21 21 21 23 24 24 24 23 22 21 20 19 19 21 21 22 22 22 23 24 25 24 24 25 26 27 29 33 36 39 42 46 48 46 50 57 59 54 50 46 44 45 47 44 35 27 26 29 27 23 21 21 20 20 19 18
22 23 25 26 26 26 24 22 22 24 25 26 25 24 23 21 21 20 20 20 21 21 22 23 23 24 25 26 26 26 28 29 30 32 34 36 37 40 44 47 45 44 48 51 49 46 43 40 40 43 43 34 27 27 28 26 22 22 21 21 20 19 19
23 24 26 26 28 29 26 23 23 25 26 27 27 24 22 21 21 21 20 20 20 20 21 22 23 24 26 27 28 29 30 32 33 35 36 36 38 38 39 44 46 44 41 37 35 35 36 35 36 40 39 33 28 28 28 26 23 22 22 21 20 20 20
24 25 26 26 28 30 27 22 23 25 26 27 26 22 19 19 18 18 18 18 19 20 21 22 24 26 27 28 28 28 29 30 32 34 35 35 37 36 35 39 42 43 43 34 26 28 32 31 31 33 31 29 29 29 28 26 23 23 22 21 20 21 22
25 27 27 26 28 31 28 23 22 24 26 26 24 21 20 20 20 20 20 20 20 20 21 23 24 24 23 23 22 22 23 25 27 29 31 33 35 34 34 34 33 36 41 33 21 25 30 28 27 28 27 28 29 29 27 25 23 23 22 21 21 22 24
28 29 29 28 30 32 29 25 24 24 25 26 26 25 25 25 24 23 22 21 20 21 22 22 21 20 19 19 20 20 22 24 26 27 29 31 34 34 33 30 27 26 27 22 17 23 28 27 25 25 26 29 30 28 26 24 24 24 22 21 22 24 25
31 30 30 30 30 30 28 26 26 26 27 28 29 29 29 28 26 24 23 21 21 22 21 21 20 20 20 20 21 22 23 25 26 27 29 30 32 33 28 21 18 17 16 15 19 24 27 27 26 25 27 29 29 27 25 24 24 24 24 23 24 25 25
32 29 29 29 28 28 28 28 29 29 29 30 30 30 29 28 26 24 22 22 22 21 20 19 19 18 18 20 21 23 24 25 26 27 28 28 29 28 23 17 15 16 17 18 22 25 27 27 26 25 26 28 28 26 25 25 25 25 25 25 26 26 26
32 29 28 30 29 29 30 30 31 30 30 29 29 29 28 26 24 23 22 22 21 19 18 17 17 17 18 21 23 25 25 24 24 25 26 27 25 24 22 19 17 18 19 21 24 26 27 27 25 24 24 25 26 26 26 26 26 26 27 27 28 28 29
32 28 28 31 31 30 30 30 30 29 29 29 29 28 27 25 22 21 21 20 19 18 17 17 17 18 20 23 24 26 26 24 23 23 24 25 23 21 20 18 16 17 19 23 26 27 28 27 25 24 23 24 26 27 27 27 26 27 28 28 29 30 31
29 28 31 33 33 31 29 28 28 27 27 28 28 28 26 23 21 19 19 19 18 18 18 18 19 20 22 24 25 27 27 24 22 23 24 24 23 20 18 18 17 16 18 22 26 28 29 27 25 24 24 26 27 27 27 28 28 28 28 29 30 30 33
27 29 32 34 33 30 28 27 27 27 28 28 28 25 22 19 18 17 18 20 20 20 20 20 21 23 24 26 27 28 27 24 22 23 25 25 23 20 18 17 18 18 20 24 28 30 29 27 25 25 26 27 27 27 28 28 28 28 29 31 32 32 37
30 32 33 33 31 30 29 29 30 29 28 26 23 20 19 18 19 21 22 22 21 22 22 23 23 25 26 27 28 28 27 24 22 23 24 24 23 20 17 16 18 21 24 27 30 31 29 27 25 25 25 26 26 27 29 28 29 30 31 31 30 31 36
30 31 32 32 31 29 29 30 29 27 23 19 17 17 18 20 21 23 23 23 23 24 25 25 25 26 27 28 28 27 25 22 21 22 23 23 22 21 19 18 19 23 26 29 30 30 27 25 25 24 24 24 25 28 30 30 28 27 26 25 26 27 29
27 27 29 29 28 28 28 28 26 23 20 18 18 20 21 20 20 21 23 24 26 26 26 26 27 27 28 28 27 26 23 20 20 21 21 21 21 20 20 19 20 24 28 29 28 27 26 25 24 23 23 24 25 28 31 29 25 23 24 25 25 24 24
26 27 28 29 29 29 29 26 24 22 20 21 22 23 22 21 21 23 25 26 26 26 26 27 28 28 27 27 25 24 21 18 18 19 19 19 19 19 19 19 21 25 27 27 27 26 25 24 23 23 23 24 26 27 29 30 30 30 31 30 27 24 24
30 30 30 30 30 29 27 23 21 20 20 20 20 21 22 23 24 25 25 25 25 26 26 27 27 27 26 25 24 21 18 16 16 16 16 17 18 19 19 19 23 25 25 26 27 26 25 24 25 25 25 25 26 27 28 30 32 33 33 31 28 27 27
28 26 25 25 24 23 22 21 21 21 20 20 20 21 22 23 24 25 25 26 27 27 28 28 27 27 26 24 22 20 17 15 14 14 15 16 17 19 19 21 24 26 27 27 27 26 26 26 26 25 25 25 26 27 28 30 33 33 32 31 29 29 29
21 19 17 17 17 18 19 20 21 22 23 23 23 23 23 23 24 25 26 27 27 28 28 27 27 27 26 24 22 20 18 16 15 14 14 15 17 19 19 21 24 27 28 28 27 27 26 26 25 25 26 26 26 27 29 31 32 32 31 30 31 31 32
17 16 17 17 18 19 21 22 23 23 24 24 23 23 23 24 25 26 27 27 27 27 27 26 27 27 25 23 22 21 20 18 17 15 14 15 16 17 17 20 22 25 27 27 27 27 26 25 25 26 26 26 26 27 29 30 30 30 30 31 32 32 32
14 14 17 19 21 22 23 25 25 24 22 21 21 22 23 24 25 26 27 26 26 25 26 26 26 24 22 21 21 21 19 18 17 14 13 14 16 16 16 18 20 22 24 26 25 25 25 24 25 25 25 25 26 27 28 28 27 27 28 30 30 30 30
17 20 22 23 22 22 23 24 24 24 23 23 24 25 26 26 27 27 25 24 24 24 24 23 22 20 19 19 18 17 15 15 14 12 10 13 16 17 17 18 19 20 21 22 23 23 23 23 23 23 23 24 25 25 25 25 25 26 27 28 28 29 29
21 24 25 24 24 24 24 24 24 24 25 25 26 26 27 27 26 23 21 21 22 22 21 20 19 18 17 16 15 13 12 12 12 10 10 12 16 18 18 19 19 19 20 21 22 22 22 22 22 22 22 23 24 24 24 24 25 26 27 27 28 28 28

ECMWFFLT1_700_spd_024.txt.gz
Wind_Speed
15 13 14 16 19 24 27 26 26 24 24 25 24 23 24 25 24 24 23 22 23 23 23 22 22 21 20 20 21 21 21 20 19 18 18 20 20 20 19 18 17 16 14 13 12 12 11 11 11 11 11 11 11 12 12 12 12 11 9 8 8 8 8
19 17 16 16 17 20 22 24 25 26 25 25 24 25 26 25 24 21 20 21 22 22 23 22 22 21 20 20 21 21 21 20 20 20 21 22 21 20 20 19 18 17 15 15 14 14 14 14 14 14 13 12 13 13 13 13 12 11 10 9 9 9 8
22 21 20 18 17 18 19 21 23 25 27 26 25 26 27 26 24 21 20 20 20 21 22 22 21 21 21 21 21 21 22 22 22 22 22 23 22 22 22 21 20 19 17 17 17 17 17 18 17 16 14 14 14 14 14 15 14 12 11 10 10 10 10
23 23 23 20 18 17 18 20 21 23 27 27 26 26 27 26 23 21 21 20 21 21 21 20 20 21 21 21 22 22 23 24 24 24 24 25 24 24 24 23 22 21 20 20 20 21 21 21 19 18 17 18 18 15 14 15 16 14 12 11 11 11 12
23 23 23 21 20 20 21 22 22 23 26 27 27 26 26 25 24 23 22 21 21 21 20 20 20 21 21 22 22 23 24 25 25 26 26 26 26 27 27 25 24 24 24 24 24 24 24 23 22 21 21 20 17 13 14 17 19 17 14 11 11 13 15
23 25 25 23 21 21 23 25 25 26 27 27 27 26 25 26 26 25 22 21 21 21 22 23 22 22 22 22 23 24 25 26 26 27 28 28 28 28 28 28 28 29 28 27 28 27 27 27 26 24 23 21 19 19 22 24 23 21 18 14 13 17 18
23 25 25 24 23 22 25 27 27 27 28 28 27 26 26 26 26 25 24 23 22 21 22 23 23 23 23 23 24 25 25 25 25 27 28 29 29 29 31 32 32 31 31 31 31 31 32 31 29 28 28 28 29 29 27 28 27 24 21 19 19 21 21
20 22 24 23 22 22 25 27 28 28 28 29 29 28 28 27 27 27 26 24 23 23 23 24 24 24 23 24 25 25 24 24 25 27 28 30 30 31 34 35 34 34 34 35 34 34 35 35 33 33 34 36 37 32 28 28 29 27 24 23 23 22 21
17 19 20 20 18 20 24 28 29 28 28 29 30 30 29 29 28 28 26 24 24 24 25 24 24 24 24 24 24 23 23 24 25 26 27 30 31 32 36 38 37 37 37 37 37 37 37 37 36 37 39 40 39 34 29 29 29 28 28 26 25 25 24
19 19 19 18 18 19 25 29 30 28 27 29 31 30 29 29 29 28 27 25 25 26 25 24 24 25 26 25 24 24 24 25 25 25 27 29 30 32 38 40 38 38 39 39 40 40 39 38 39 40 40 40 38 34 32 32 33 32 29 28 27 27 27
21 20 19 18 18 20 26 31 30 26 26 29 30 30 29 28 28 28 27 27 27 26 26 25 25 27 27 25 24 25 25 25 25 25 26 27 28 31 36 40 39 39 41 42 42 42 41 41 42 42 41 40 39 38 36 36 37 36 32 28 27 27 27
22 20 18 17 18 21 26 31 29 26 26 28 29 29 28 28 27 26 26 26 26 26 27 27 27 28 27 25 25 25 25 24 24 25 25 26 28 30 34 41 41 40 41 43 43 44 44 43 43 43 43 43 44 44 40 38 40 40 36 29 27 27 27
24 22 20 17 18 21 25 28 28 27 26 27 28 29 28 26 25 23 22 22 23 26 28 29 28 28 27 26 25 26 26 25 25 25 25 27 28 28 32 39 43 42 42 44 44 45 45 45 45 45 46 49 50 48 45 42 42 43 40 31 27 27 27
23 24 25 23 21 21 24 25 27 27 26 27 28 29 28 26 24 22 20 20 22 24 26 28 28 27 27 27 27 28 27 25 25 25 26 27 27 27 30 36 42 43 43 44 44 45 46 45 45 47 49 53 56 53 50 48 44 42 40 31 26 27 26
23 25 27 28 26 24 24 25 28 27 26 28 29 29 28 26 24 22 22 22 23 24 25 27 27 27 27 28 28 28 27 27 27 26 26 26 27 27 29 34 39 41 41 42 44 44 46 45 44 46 47 52 57 57 55 54 49 45 39 28 25 27 26
26 25 27 29 29 27 25 26 30 28 27 29 30 30 30 28 26 24 24 25 25 26 27 28 28 28 28 28 28 28 28 27 27 26 27 28 28 29 30 33 37 38 36 37 40 40 41 41 41 42 42 47 56 58 55 54 53 49 40 27 25 27 27
28 26 28 30 30 28 26 29 31 29 29 30 31 32 32 30 27 26 27 27 28 28 28 28 28 28 27 27 26 27 27 27 27 28 29 29 30 31 32 33 36 36 33 33 35 36 36 36 37 38 40 46 54 57 54 52 53 50 39 28 27 27 27
29 26 27 29 28 27 28 32 32 29 30 32 32 34 33 31 30 29 29 28 28 28 28 28 27 27 26 26 26 26 27 27 29 30 31 32 33 34 36 36 37 38 36 35 35 33 32 33 34 36 40 45 49 50 49 50 52 46 35 29 29 28 28
29 25 26 28 26 25 30 34 32 30 32 33 34 35 34 32 31 29 29 29 29 29 29 27 26 26 25 25 26 26 27 28 29 30 31 32 32 33 34 35 36 37 36 36 35 33 31 31 31 33 36 39 39 39 41 45 46 38 29 28 29 29 30
28 25 24 25 26 27 31 35 33 31 32 34 34 35 34 32 31 30 30 31 30 29 28 26 24 23 22 23 24 24 24 25 26 27 27 26 27 28 30 32 34 35 34 34 34 33 31 28 27 30 33 34 34 35 38 40 37 30 26 28 30 30 31
27 24 22 24 28 30 31 34 35 33 34 35 36 36 35 33 33 33 33 32 30 27 25 23 21 21 21 21 21 20 20 20 20 21 22 23 25 26 28 30 32 32 32 31 32 32 30 28 26 27 29 31 31 31 34 34 30 25 26 29 31 31 31
29 26 24 24 28 30 31 34 36 36 35 36 36 35 35 35 35 36 34 31 28 25 22 21 20 20 20 19 19 18 17 16 17 19 21 22 24 25 27 30 30 31 31 30 31 30 29 29 29 27 28 28 26 25 28 29 26 24 27 30 31 31 31
34 31 29 28 29 29 30 33 36 37 36 35 35 35 36 37 36 35 32 29 26 24 22 22 21 20 20 19 18 17 16 16 17 19 21 23 24 25 27 29 30 31 30 29 30 30 28 28 29 29 29 27 25 25 27 26 25 26 28 30 31 31 31
37 35 34 34 32 31 32 33 35 38 37 35 36 36 36 36 34 32 31 29 27 25 24 23 22 20 20 19 18 17 17 17 19 21 23 24 25 26 28 30 30 30 30 28 29 29 29 28 29 31 30 27 26 28 27 26 27 29 29 30 31 31 31
37 36 35 35 33 32 34 34 35 39 39 36 36 36 35 35 33 32 32 31 28 26 24 23 21 20 20 19 19 19 19 19 20 22 24 25 26 26 28 30 30 30 29 28 28 29 28 27 28 30 30 27 27 28 28 27 29 31 31 30 30 31 32
36 37 36 35 33 33 33 33 34 39 40 37 36 37 36 36 35 34 34 30 27 25 23 22 20 20 21 21 20 20 20 21 22 23 25 26 26 27 28 29 29 28 27 27 28 27 26 26 27 28 28 26 26 28 28 28 30 31 30 30 30 32 34
37 37 35 35 33 31 31 32 34 40 41 38 37 37 36 36 35 34 31 28 26 24 22 20 20 21 22 22 21 21 22 23 24 25 26 26 26 27 28 28 27 26 25 26 26 26 24 24 26 26 25 25 27 28 28 28 29 30 29 29 31 32 33
35 35 34 32 30 29 31 33 36 39 39 37 35 34 34 34 32 30 28 26 25 24 23 22 22 23 24 23 22 23 25 26 27 27 27 27 27 27 28 28 26 24 23 23 25 25 24 23 25 26 25 26 28 29 28 28 28 29 28 28 29 30 31
32 30 30 28 28 30 34 36 38 38 37 35 34 32 31 30 28 25 24 24 25 25 24 24 24 25 25 25 25 26 27 28 28 28 27 27 27 27 28 27 24 22 21 22 24 25 23 24 26 26 26 29 31 30 28 28 28 27 27 27 27 29 30
29 29 28 29 31 34 35 35 36 35 34 32 30 29 27 25 23 23 24 25 25 24 24 24 26 27 28 28 27 28 29 30 29 28 28 27 27 27 27 25 23 21 20 21 23 24 24 25 27 27 28 31 33 29 27 28 27 26 27 28 28 29 29
28 28 30 31 33 34 33 31 31 30 28 26 25 24 23 23 24 25 26 27 26 24 24 25 27 29 29 29 30 30 31 31 29 28 27 26 26 26 25 24 22 20 19 20 22 24 25 26 26 27 29 32 32 28 27 27 27 27 28 28 27 27 26
30 30 31 32 32 31 29 27 26 25 23 23 23 23 24 27 28 27 26 26 24 23 23 25 27 28 28 29 30 30 30 29 28 27 27 26 26 26 25 24 22 19 18 18 21 24 26 26 26 28 30 32 31 29 26 25 25 26 27 26 26 26 26
32 31 31 30 29 27 25 24 24 23 23 24 24 24 25 26 26 24 23 23 23 23 24 25 26 27 27 28 27 27 27 27 27 27 27 27 26 26 25 24 21 19 17 18 20 24 26 26 27 29 30 31 30 29 27 25 25 25 25 25 26 26 26
33 32 31 30 28 27 26 26 25 26 26 26 27 26 24 23 22 21 21 22 23 24 25 26 26 26 26 26 26 26 27 27 26 27 27 27 27 26 25 23 21 19 18 19 22 25 26 26 27 29 29 29 29 28 27 26 26 26 26 25 25 25 26
33 31 29 28 25 23 23 22 21 21 21 22 23 24 22 20 20 20 21 22 24 25 25 25 26 26 26 26 26 26 25 25 25 25 27 28 28 27 25 24 22 20 19 21 24 26 26 26 28 29 29 28 28 27 25 24 24 25 25 25 25 25 26
28 26 24 23 20 18 17 16 15 15 15 16 16 17 18 19 20 21 22 23 24 25 25 26 27 27 27 26 25 24 24 23 23 24 26 28 28 27 26 24 22 19 19 22 26 27 27 26 26 27 27 27 26 25 24 23 23 23 24 25 25 25 26
23 21 20 18 16 15 14 13 13 12 12 13 14 16 18 20 21 22 23 24 25 26 27 27 27 27 26 25 24 23 22 21 22 24 26 28 27 26 24 23 21 19 17 19 23 26 27 27 26 25 25 25 24 23 23 22 23 23 24 25 25 25 26
15 15 14 12 12 11 11 11 12 13 14 15 17 19 20 21 22 23 24 25 26 27 26 26 25 25 24 23 22 21 20 21 22 24 24 24 23 23 22 20 20 19 17 18 21 23 25 26 26 26 25 25 24 23 22 22 22 23 24 24 25 26 27